TimeCDT,TemperatureF,Dew PointF,Humidity,Sea Level PressureIn,VisibilityMPH,Wind Direction,Wind SpeedMPH,Gust SpeedMPH,PrecipitationIn,Events,Conditions,WindDirDegrees,DateUTC
12:53 AM,73.0,62.1,68,29.99,10.0,SSW,6.9,-,N/A,,Clear,210,2013-05-20 05:53:00
1:53 AM,72.0,63.0,73,30.00,10.0,Calm,Calm,-,N/A,,Clear,0,2013-05-20 06:53:00
2:53 AM,69.8,62.6,78,29.99,10.0,SSW,3.5,-,N/A,,Clear,200,2013-05-20 07:53:00
3:53 AM,68.0,63.0,84,30.00,10.0,East,8.1,-,N/A,,Partly Cloudy,100,2013-05-20 08:53:00
4:04 AM,68.0,62.6,83,30.01,10.0,East,4.6,-,N/A,,Mostly Cloudy,90,2013-05-20 09:04:00
4:53 AM,69.1,64.0,84,30.01,10.0,East,5.8,-,N/A,,Mostly Cloudy,100,2013-05-20 09:53:00
5:03 AM,68.0,62.6,83,30.01,10.0,East,5.8,-,N/A,,Scattered Clouds,90,2013-05-20 10:03:00
5:53 AM,66.2,62.6,88,30.03,10.0,East,3.5,-,N/A,,Clear,100,2013-05-20 10:53:00
6:53 AM,69.8,62.6,78,30.05,10.0,East,5.8,-,N/A,,Partly Cloudy,90,2013-05-20 11:53:00
7:53 AM,73.9,66.0,76,30.06,10.0,ESE,6.9,-,N/A,,Scattered Clouds,110,2013-05-20 12:53:00
8:49 AM,77.0,66.2,69,30.09,10.0,East,5.8,-,N/A,,Mostly Cloudy,100,2013-05-20 13:49:00
8:53 AM,77.0,66.9,71,30.08,10.0,East,6.9,-,N/A,,Mostly Cloudy,100,2013-05-20 13:53:00
9:15 AM,78.8,66.2,65,30.09,10.0,East,6.9,-,N/A,,Mostly Cloudy,90,2013-05-20 14:15:00
9:32 AM,78.8,68.0,69,30.09,10.0,Variable,4.6,-,N/A,,Scattered Clouds,0,2013-05-20 14:32:00
9:40 AM,78.8,66.2,65,30.08,10.0,ESE,6.9,-,N/A,,Mostly Cloudy,120,2013-05-20 14:40:00
9:53 AM,81.0,66.9,62,30.08,10.0,Variable,5.8,-,N/A,,Scattered Clouds,0,2013-05-20 14:53:00
10:53 AM,82.9,66.9,58,30.09,10.0,Calm,Calm,-,N/A,,Scattered Clouds,0,2013-05-20 15:53:00
11:53 AM,84.0,66.9,56,30.07,10.0,Variable,3.5,-,N/A,,Scattered Clouds,0,2013-05-20 16:53:00
12:53 PM,86.0,66.9,53,30.06,10.0,South,4.6,-,N/A,,Clear,180,2013-05-20 17:53:00
1:53 PM,88.0,66.0,48,30.04,10.0,Calm,Calm,-,N/A,,Clear,0,2013-05-20 18:53:00
2:53 PM,90.0,66.0,45,30.02,10.0,Variable,4.6,-,N/A,,Partly Cloudy,0,2013-05-20 19:53:00
3:53 PM,89.1,64.9,45,30.00,10.0,Calm,Calm,-,N/A,,Partly Cloudy,0,2013-05-20 20:53:00
4:53 PM,89.1,64.9,45,29.99,10.0,Calm,Calm,-,N/A,,Clear,0,2013-05-20 21:53:00
5:53 PM,88.0,66.0,48,29.98,10.0,SSE,3.5,-,N/A,,Partly Cloudy,160,2013-05-20 22:53:00
6:53 PM,86.0,66.9,53,29.97,10.0,Calm,Calm,-,N/A,,Clear,0,2013-05-20 23:53:00
7:53 PM,81.0,66.9,62,29.97,10.0,Calm,Calm,-,N/A,,Clear,0,2013-05-21 00:53:00
8:53 PM,77.0,68.0,74,29.99,10.0,SSE,4.6,-,N/A,,Clear,150,2013-05-21 01:53:00
9:53 PM,77.0,66.9,71,29.99,10.0,SSE,4.6,-,N/A,,Clear,150,2013-05-21 02:53:00
10:53 PM,75.0,66.0,73,29.99,10.0,SE,5.8,-,N/A,,Clear,130,2013-05-21 03:53:00
11:53 PM,73.9,66.0,76,29.99,10.0,Calm,Calm,-,N/A,,Clear,0,2013-05-21 04:53:00